This demonstration page uses our WeatherBlox Daily Observations layout. Learn more.

Left ArrowRight Arrow

39.01783, -85.05884

Hourly Observations for July 14, 2021

Temp ( °F °C ) Dew Point ( °F °C ) Humidity (%) Winds ( mph kmh ) Pressure ( in mb ) Visibility ( mi km ) Precip ( " mm )
12:52 am 00:52 Mostly Clear 69 20.6 66 18.9 90 90 SSW 8 13 30.15 1021 10 16 0.00 0.00
1:52 am 01:52 Mostly Cloudy 70 21.1 66 18.9 87 87 SW 7 11 30.15 1021 10 16 0.00 0.00
2:52 am 02:52 Partly Cloudy 69 20.6 66 18.9 90 90 SSW 5 7 30.15 1021 9 14 0.00 0.00
3:52 am 03:52 Mostly Cloudy 68 20 66 18.9 93 93 SSW 5 7 30.16 1021 9 14 0.00 0.00
4:52 am 04:52 Partly Cloudy 68 20 65 18.3 90 90 WSW 3 6 30.16 1022 8 13 0.00 0.00
5:52 am 05:52 Mostly Cloudy with Mist and Fog 68 20 65 18.3 90 90 SSW 3 6 30.18 1022 6 10 0.00 0.00
6:52 am 06:52 Partly Cloudy with Mist and Fog 68 20 65 18.3 90 90 SSW 5 7 30.18 1022 5 8 0.00 0.00
7:29 am 07:29 Sunny with Mist and Fog 69 20.6 66 18.9 90 90 SSW 6 9 30.20 1023 3 4 0.00 0.00
7:45 am 07:45 Partly Cloudy with Mist and Fog 69 20.6 67 19.4 93 93 SSW 6 9 30.19 1022 1 1 0.00 0.00
7:52 am 07:52 Mostly Cloudy with Mist and Fog 70 21.1 67 19.4 90 90 SSW 6 9 30.19 1022 1 1 0.00 0.00
7:57 am 07:57 Mostly Cloudy with Fog 70 21.1 67 19.4 90 90 SSW 7 11 30.19 1022 1 2 0.00 0.00
8:52 am 08:52 Cloudy with Mist and Fog 71 21.7 68 20 90 90 WSW 3 6 30.19 1023 2 3 0.00 0.00
9:10 am 09:10 Cloudy with Mist and Fog 71 21.7 67 19.4 87 87 W 3 6 30.20 1023 2 3 0.00 0.00
9:42 am 09:42 Cloudy 73 22.8 68 20 84 84 WSW 5 7 30.21 1023 7 11 0.00 0.00
9:52 am 09:52 Mostly Cloudy 74 23.3 68 20 82 82 SW 5 7 30.20 1023 8 13 0.00 0.00
10:52 am 10:52 Mostly Cloudy 77 25 67 19.4 71 71 W 7 11 30.21 1023 10 16 0.00 0.00
11:52 am 11:52 Mostly Cloudy 80 26.7 66 18.9 62 62 WSW 7 11 30.21 1023 10 16 0.00 0.00
12:52 pm 12:52 Mostly Cloudy 80 26.7 66 18.9 62 62 SW 7 11 30.20 1023 10 16 0.00 0.00
1:52 pm 13:52 Mostly Cloudy 82 27.8 65 18.3 56 56 SW 7 11 30.19 1022 10 16 0.00 0.00
2:52 pm 14:52 Partly Cloudy 83 28.3 65 18.3 55 55 VRB 5 7 30.17 1022 10 16 0.00 0.00
3:52 pm 15:52 Partly Cloudy 84 28.9 65 18.3 53 53 SSW 9 15 30.15 1021 10 16 0.00 0.00
4:52 pm 16:52 Partly Cloudy 83 28.3 67 19.4 59 59 SW 6 9 30.14 1021 10 16 0.00 0.00
5:52 pm 17:52 Mostly Sunny 83 28.3 66 18.9 57 57 SSW 6 9 30.13 1020 10 16 0.00 0.00
6:52 pm 18:52 Mostly Sunny 83 28.3 67 19.4 59 59 SW 6 9 30.13 1020 10 16 0.00 0.00
7:52 pm 19:52 Mostly Sunny 81 27.2 68 20 65 65 SSW 5 7 30.12 1020 10 16 0.00 0.00
8:52 pm 20:52 Mostly Sunny 78 25.6 67 19.4 69 69 SSW 5 7 30.11 1020 10 16 0.00 0.00
9:52 pm 21:52 Mostly Clear 77 25 68 20 74 74 S 5 7 30.11 1020 10 16 0.00 0.00
10:52 pm 22:52 Mostly Clear 75 23.9 68 20 79 79 SSW 6 9 30.12 1020 10 16 0.00 0.00
11:52 pm 23:52 Mostly Clear 75 23.9 68 20 79 79 SSW 6 9 30.12 1020 10 16 0.00 0.00

Powered by AerisWeather